Home   Weather   Nanaimo   Past weeks

Flag for Canada Past Weather in Nanaimo, British Columbia, Canada — Yesterday and Last 2 Weeks

Now
60 °F

Cool.


Feels Like: 60 °F
Forecast: 53 / 74 °F
Wind: 5 mph from South

Location: Entrance Island

Current Time: May 26, 2017 at 11:27:34 pm

Latest Report: May 26, 2017 at 10:00 pm


Visibility: N/A

Pressure: 29.97 "Hg

Humidity: 79%

Dew Point: 53 °F

Location of NanaimoLocation

Past Weather in Nanaimo — Graph

°F

Nanaimo Temperature Yesterday

Maximum temperature yesterday: 64 °F (at 11:00 pm)
Minimum temperature yesterday: 53 °F (at 5:00 am)
Average temperature yesterday: 57 °F

High & Low Weather Summary for the Past Weeks

 TemperatureHumidityPressure
High69 °F (May 23, 4:00 pm)96% (May 18, 7:00 am)30.27 "Hg (May 18, 7:00 am)
Low42 °F (May 16, 7:00 am)28% (May 23, 6:00 pm)29.52 "Hg (May 16, 6:00 am)
Average55 °F78%30.00 "Hg
* Reported May 11 10:00 pm — May 26 10:00 pm, Nanaimo. Weather by CustomWeather, © 2017

Note: Actual official high and low records may vary slightly from our data, if they occured in-between our weather recording intervals... More about our weather records

Advertising

Nanaimo Weather History for the Previous 24 Hours

Scroll right to see more
 ConditionsComfort  
Time TempWeatherWind HumidityBarometerVisibility
10:00 pm
Fri, May 26
60 °FCool.5 mph79%29.97 "HgN/A
9:00 pm61 °FCool.5 mph78%29.96 "HgN/A
8:00 pm62 °FCool.1 mph70%29.95 "HgN/A
7:00 pm62 °FMild.1 mph70%29.95 "HgN/A
6:00 pm63 °FMild.3 mph74%29.95 "HgN/A
5:00 pm62 °FCool.2 mph75%29.96 "HgN/A
4:00 pm62 °FMild.3 mph72%29.95 "HgN/A
3:00 pm60 °FCool.5 mph76%29.97 "HgN/A
2:00 pm60 °FCool.3 mph75%29.97 "HgN/A
1:00 pm58 °FCool.3 mph75%29.98 "HgN/A
12:00 pm57 °FCool.7 mph78%29.98 "HgN/A
11:00 am56 °FCool.14 mph80%29.98 "HgN/A
10:00 am56 °FCool.17 mph81%29.98 "HgN/A
9:00 am56 °FCool.14 mph79%29.97 "HgN/A
8:00 am56 °FCool.12 mph79%29.96 "HgN/A
7:00 am56 °FCool.13 mph78%29.96 "HgN/A
6:00 am56 °FCool.16 mph80%29.94 "HgN/A
5:00 am58 °FCool.16 mph75%29.93 "HgN/A
4:00 am58 °FCool.15 mph74%29.93 "HgN/A
3:00 am59 °FCool.16 mph74%29.91 "HgN/A
2:00 am59 °FCool.5 mph76%29.90 "HgN/A
1:00 am58 °FCool.2 mph77%29.89 "HgN/A
12:00 am58 °FCool.8 mph83%29.87 "HgN/A
11:00 pm
Thu, May 25
64 °FMild.12 mph54%29.84 "HgN/A
Weather by CustomWeather, © 2017

See weather overviewHow to use our weather pages